[[{"header":{"parameterUnit":"m.s-1","parameterCategory":1,"la1":30.2991,"la2":30.254,"lo1":-89.0895,"lo2":-89.0444,"dy":0.0017,"dx":0.0017,"nx":28,"ny":28,"refTime":"2025-02-26T09:00:00:Z","depth":0,"parameterNumber":2,"parameterNumberName":"U-component_of_WINDS"},"data":[0,0,0,0,0,0,0,0,0,0,0,0,0,0,0,0,0,0,0,0,0,0,0,0,0,0,0,0,0,0,0,0,0,0,0,0,0,0,0,0,0,0,0,0,0,0,0,0,0,0,0,0,0,0,0,0,0,0,-0.7072,-0.7072,0,-0.6985,-0.6984,-0.6983,-0.6949,-0.6949,-0.6949,-0.695,-0.6858,-0.6855,-0.6852,0,0,0,0,0,0,0,0,0,0,0,0,0,-0.7209,-0.7206,-0.7073,-0.7072,-0.707,-0.6985,-0.6984,-0.6983,-0.6949,-0.6949,-0.6949,-0.695,-0.6858,-0.6855,-0.6852,0,0,0,0,0,0,0,0,0,0,0,0,0,-0.7138,-0.7205,-0.7073,-0.7043,-0.704,-0.6986,-0.6984,-0.6983,-0.6949,-0.6949,-0.6949,-0.695,-0.6859,-0.6856,-0.6852,-0.682,0,0,-0.6839,-0.6838,0,0,0,0,0,0,0,0,-0.7142,-0.7133,-0.7049,-0.7045,-0.7041,-0.6978,-0.6998,-0.6928,-0.6949,-0.6983,-0.695,-0.695,-0.6897,-0.689,-0.6873,-0.6815,-0.6811,-0.6839,-0.6837,-0.6835,-0.6834,0,0,0,0,0,0,0,-0.7147,-0.7137,-0.7038,-0.7047,-0.7043,-0.7034,-0.7024,-0.6985,-0.6939,-0.698,-0.6977,-0.6968,-0.6895,-0.6877,-0.687,-0.681,-0.6839,-0.6836,-0.6833,-0.6832,-0.6723,-0.6722,0,0,0,0,0,0,-0.7157,-0.7141,-0.7041,-0.7035,-0.7094,-0.7031,-0.702,-0.6998,-0.694,-0.6931,-0.6968,-0.6966,-0.6884,-0.6875,-0.6867,-0.6826,-0.6835,-0.6831,-0.6829,-0.6723,-0.6723,-0.6722,0,0,0,0,0,0,-0.716,-0.7149,-0.7044,-0.7087,-0.7073,-0.7028,-0.7004,-0.6996,-0.6978,-0.693,-0.6922,-0.6957,-0.6883,-0.6873,-0.6832,-0.6822,-0.6829,-0.6826,-0.6724,-0.6723,-0.6722,-0.6744,0,0,0,0,0,0,-0.7164,-0.715,-0.7137,-0.7087,-0.7071,-0.7011,-0.7003,-0.6994,-0.6971,-0.6969,-0.6918,-0.691,-0.6883,-0.6838,-0.6828,-0.6817,-0.6823,-0.6724,-0.6723,-0.6723,-0.6744,-0.6744,-0.6744,0,0,0,0,0,-0.7169,-0.7146,-0.7137,-0.7125,-0.7055,-0.7011,-0.7001,-0.6971,-0.6971,-0.6958,-0.6927,-0.6912,-0.6826,-0.6834,-0.6823,-0.681,-0.6725,-0.6724,-0.6723,-0.6744,-0.6744,-0.6744,0,0,0,0,0,0,-0.7195,-0.7139,-0.7128,-0.7089,-0.7055,-0.7005,-0.6987,-0.6972,-0.6937,-0.6937,-0.69,-0.6889,-0.6852,-0.6827,-0.6838,-0.6777,-0.6774,-0.6771,-0.6794,-0.6794,-0.6794,-0.68,-0.6819,0,0,0,0,0,-0.7197,-0.7166,-0.7118,-0.7088,-0.7072,-0.7033,-0.7012,-0.6992,-0.6955,-0.6941,-0.6907,-0.6871,-0.6836,-0.6814,-0.6779,-0.6741,-0.6729,-0.6726,-0.6726,-0.6727,-0.6724,-0.6702,-0.67,-0.6718,-0.6719,-0.6719,0,0,-0.7199,-0.7164,-0.7147,-0.7092,-0.7064,-0.7032,-0.7021,-0.6988,-0.6964,-0.6935,-0.6895,-0.687,-0.6827,-0.6788,-0.6769,-0.6766,-0.6717,-0.6725,-0.6726,-0.6723,-0.6701,-0.6699,-0.6698,-0.6718,-0.6718,-0.6718,0,0,-0.7186,-0.7157,-0.7129,-0.7101,-0.7058,-0.7033,-0.7026,-0.6979,-0.6961,-0.692,-0.6899,-0.687,-0.681,-0.6781,-0.6758,-0.6737,-0.6721,-0.6726,-0.6727,-0.6706,-0.6704,-0.6703,-0.6695,-0.6693,-0.6724,-0.6724,-0.6724,0,-0.7194,-0.7146,-0.7116,-0.7084,-0.7061,-0.7035,-0.7006,-0.698,-0.6928,-0.6912,-0.6911,-0.6836,-0.6806,-0.6759,-0.6754,-0.6737,-0.6728,-0.6731,-0.6707,-0.6705,-0.6704,-0.6696,-0.6693,-0.6725,-0.6725,-0.6724,-0.6724,0,-0.7157,-0.7125,-0.7107,-0.7058,-0.7033,-0.7003,-0.6968,-0.6946,-0.6929,-0.6904,-0.6863,-0.6826,-0.6784,-0.6771,-0.6753,-0.6722,-0.6722,-0.6714,-0.6711,-0.6703,-0.6695,-0.6692,-0.6726,-0.6726,-0.6725,-0.6725,0,0,-0.7157,-0.7094,-0.7088,-0.7066,-0.7017,-0.6991,-0.696,-0.6919,-0.6901,-0.6867,-0.6839,-0.6791,-0.6783,-0.6758,-0.6737,-0.6719,-0.6704,-0.6713,-0.6711,-0.6712,-0.6668,-0.6674,-0.6671,-0.6694,-0.6693,-0.6693,-0.6671,0,-0.7138,-0.7082,-0.7054,-0.701,-0.6979,-0.6955,-0.6928,-0.6895,-0.6871,-0.6842,-0.6815,-0.6781,-0.6774,-0.6758,-0.674,-0.671,-0.6695,-0.6711,-0.6668,-0.6667,-0.6679,-0.6666,-0.6672,-0.6653,-0.6668,-0.6667,-0.6667,0,-0.7107,-0.7074,-0.7027,-0.6983,-0.6969,-0.6945,-0.6906,-0.6878,-0.6841,-0.6825,-0.6798,-0.6777,-0.6744,-0.6744,-0.6697,-0.6709,-0.669,-0.6673,-0.6671,-0.6665,-0.6666,-0.666,-0.6647,-0.6644,-0.6662,-0.6662,-0.6663,0,-0.7112,-0.7055,-0.702,-0.7002,-0.6949,-0.6933,-0.6911,-0.6874,-0.6852,-0.6818,-0.6803,-0.6765,-0.6744,-0.6716,-0.6686,-0.6689,-0.6642,-0.6639,-0.6627,-0.6628,-0.6617,-0.6618,-0.6601,-0.6606,-0.6606,-0.6606,-0.6607,0,-0.7093,-0.7065,-0.7021,-0.6999,-0.6967,-0.6936,-0.6905,-0.6881,-0.6849,-0.6821,-0.6798,-0.6773,-0.6736,-0.6706,-0.6683,-0.6648,-0.6638,-0.6624,-0.6618,-0.6626,-0.6628,-0.6612,-0.6612,-0.6606,-0.6606,-0.6606,-0.6606,0,-0.7092,-0.7062,-0.7021,-0.6976,-0.6964,-0.6942,-0.6903,-0.6881,-0.6857,-0.6822,-0.6813,-0.6774,-0.6738,-0.6706,-0.6658,-0.6642,-0.6606,-0.6599,-0.6619,-0.6615,-0.6605,-0.6606,-0.6576,-0.657,-0.6581,-0.6581,-0.6581,0,-0.7081,-0.7059,-0.7012,-0.6993,-0.6971,-0.6939,-0.6917,-0.6886,-0.6863,-0.682,-0.6803,-0.6766,-0.6734,-0.6677,-0.6645,-0.6608,-0.6599,-0.6592,-0.6594,-0.6602,-0.6599,-0.66,-0.6598,-0.6591,-0.6591,-0.6591,-0.6591,0,-0.7066,-0.7052,-0.7021,-0.6984,-0.6958,-0.6928,-0.6897,-0.6882,-0.6846,-0.6821,-0.6785,-0.676,-0.6712,-0.6675,-0.6635,-0.6611,-0.6595,-0.6591,-0.6586,-0.6594,-0.6606,-0.6599,-0.6619,-0.6592,-0.6592,-0.6592,-0.6592,-0.6592,-0.7059,-0.7039,-0.7003,-0.6969,-0.6942,-0.6914,-0.6891,-0.6864,-0.6833,-0.6792,-0.6776,-0.6739,-0.6703,-0.6647,-0.6624,-0.6594,-0.6591,-0.6584,-0.6583,-0.6581,-0.6582,-0.6612,-0.6587,-0.6587,-0.6587,-0.6587,-0.6587,0,-0.7042,-0.7018,-0.6987,-0.6945,-0.6918,-0.6907,-0.6872,-0.685,-0.6818,-0.6786,-0.6756,-0.6714,-0.6678,-0.6644,-0.6606,-0.6589,-0.6581,-0.658,-0.6581,-0.6576,-0.6587,-0.6595,-0.6588,-0.6588,-0.6588,-0.6588,-0.6588,-0.6588,-0.703,-0.6995,-0.6977,-0.6929,-0.6905,-0.6868,-0.685,-0.6824,-0.6798,-0.6753,-0.6723,-0.6701,-0.6668,-0.6628,-0.6595,-0.6586,-0.6573,-0.6575,-0.6563,-0.6574,-0.6575,-0.6575,-0.6582,-0.6572,-0.6572,-0.6554,-0.6554,-0.6554]},{"header":{"parameterUnit":"m.s-1","parameterCategory":1,"la1":30.2991,"la2":30.254,"lo1":-89.0895,"lo2":-89.0444,"dy":0.0017,"dx":0.0017,"nx":28,"ny":28,"refTime":"2025-02-26T09:00:00:Z","depth":0,"parameterNumber":3,"parameterNumberName":"V-component_of_WINDS"},"data":[0,0,0,0,0,0,0,0,0,0,0,0,0,0,0,0,0,0,0,0,0,0,0,0,0,0,0,0,0,0,0,0,0,0,0,0,0,0,0,0,0,0,0,0,0,0,0,0,0,0,0,0,0,0,0,0,0,0,2.9589,2.9589,0,2.9594,2.9594,2.9594,2.9626,2.9627,2.9628,2.9628,2.963,2.9629,2.9628,0,0,0,0,0,0,0,0,0,0,0,0,0,2.9606,2.9605,2.9589,2.9589,2.9589,2.9594,2.9594,2.9594,2.9626,2.9627,2.9628,2.9629,2.963,2.9629,2.9628,0,0,0,0,0,0,0,0,0,0,0,0,0,2.9603,2.9605,2.9589,2.9606,2.9607,2.9594,2.9594,2.9594,2.9626,2.9627,2.9628,2.9629,2.963,2.9629,2.9628,2.9598,0,0,2.9625,2.9624,0,0,0,0,0,0,0,0,2.9603,2.9603,2.9603,2.9605,2.9606,2.9611,2.96,2.9595,2.9625,2.9619,2.9628,2.963,2.9622,2.9622,2.962,2.9598,2.9598,2.9625,2.9624,2.9624,2.9623,0,0,0,0,0,0,0,2.9604,2.9603,2.9591,2.9603,2.9605,2.9612,2.9613,2.9599,2.9614,2.9619,2.9622,2.9622,2.9623,2.9621,2.962,2.9598,2.9625,2.9624,2.9623,2.9623,2.9552,2.9551,0,0,0,0,0,0,2.9602,2.9603,2.9591,2.9591,2.9608,2.9611,2.9612,2.9608,2.9614,2.9616,2.9621,2.9623,2.9622,2.9621,2.962,2.9587,2.9624,2.9623,2.9622,2.9554,2.9552,2.9551,0,0,0,0,0,0,2.9602,2.96,2.9591,2.9598,2.9597,2.961,2.9605,2.9607,2.9605,2.9615,2.9618,2.9616,2.9623,2.9622,2.9604,2.9587,2.9622,2.9621,2.9555,2.9553,2.9552,2.9518,0,0,0,0,0,0,2.9602,2.96,2.9589,2.9597,2.9596,2.9574,2.9604,2.9607,2.9604,2.9607,2.9611,2.9613,2.9624,2.9605,2.9603,2.9586,2.9621,2.9557,2.9554,2.9552,2.952,2.9515,2.951,0,0,0,0,0,2.9603,2.9579,2.9589,2.9587,2.9583,2.9573,2.9573,2.9587,2.9602,2.9591,2.9598,2.9613,2.9589,2.9603,2.9601,2.9583,2.9558,2.9555,2.9552,2.9523,2.9516,2.951,0,0,0,0,0,0,2.9567,2.958,2.9591,2.9569,2.957,2.9579,2.9565,2.9579,2.9575,2.9578,2.9595,2.9595,2.9575,2.9577,2.9592,2.9555,2.9576,2.9573,2.9554,2.9548,2.9543,2.9543,2.962,0,0,0,0,0,2.9557,2.9549,2.956,2.9539,2.9539,2.9552,2.9548,2.9559,2.9561,2.9561,2.9566,2.9566,2.9559,2.9553,2.9547,2.9521,2.9522,2.9508,2.9502,2.9498,2.9495,2.9483,2.9476,2.9542,2.9542,2.9542,0,0,2.9535,2.9541,2.9535,2.9532,2.9534,2.9525,2.9552,2.9541,2.9535,2.9559,2.9543,2.9546,2.9547,2.9525,2.9516,2.9527,2.9478,2.9495,2.9491,2.9491,2.9479,2.9473,2.9467,2.954,2.954,2.954,0,0,2.9492,2.9495,2.9479,2.9481,2.9484,2.9493,2.9489,2.9496,2.95,2.9485,2.9503,2.9495,2.9481,2.9482,2.948,2.9438,2.9452,2.9435,2.9409,2.9396,2.9391,2.9387,2.9373,2.9367,2.9432,2.9432,2.9432,0,2.9464,2.9452,2.9468,2.9457,2.9455,2.9478,2.9462,2.9463,2.9463,2.9461,2.9474,2.9459,2.9461,2.944,2.943,2.9427,2.9423,2.9435,2.9391,2.9386,2.9382,2.9369,2.9364,2.943,2.943,2.943,2.9431,0,2.9419,2.941,2.9396,2.9398,2.9395,2.9381,2.9395,2.9389,2.94,2.9408,2.9392,2.9395,2.9391,2.9386,2.9396,2.9367,2.9374,2.9388,2.941,2.9374,2.9362,2.9357,2.9427,2.9428,2.9428,2.9429,0,0,2.9353,2.9365,2.936,2.9361,2.9367,2.936,2.9347,2.9344,2.934,2.9339,2.9329,2.9318,2.9331,2.933,2.934,2.9329,2.9296,2.9344,2.9345,2.9336,2.9265,2.9255,2.9249,2.9305,2.9304,2.9304,2.9265,0,2.9312,2.9292,2.9306,2.9283,2.9276,2.9298,2.9286,2.9288,2.9295,2.9289,2.9296,2.9288,2.9306,2.9306,2.9296,2.9302,2.9282,2.9305,2.9296,2.9295,2.9296,2.9242,2.9232,2.9195,2.9261,2.926,2.9259,0,2.9262,2.9261,2.9237,2.9246,2.9243,2.9233,2.9232,2.9226,2.9229,2.9234,2.9233,2.9246,2.9234,2.9255,2.9238,2.9253,2.925,2.9253,2.9252,2.9252,2.9276,2.9242,2.9184,2.9179,2.9252,2.9252,2.9253,0,2.9218,2.921,2.9196,2.9196,2.9206,2.9198,2.9201,2.9205,2.9203,2.9201,2.92,2.9196,2.9195,2.9191,2.9203,2.9218,2.9185,2.9207,2.919,2.9189,2.9182,2.9183,2.9124,2.9179,2.9179,2.9179,2.9179,0,2.9171,2.9156,2.9176,2.9167,2.9151,2.9168,2.9151,2.9157,2.916,2.9153,2.9171,2.9163,2.9179,2.9172,2.9181,2.9167,2.9165,2.9169,2.9172,2.9169,2.9168,2.9167,2.917,2.9177,2.9178,2.9178,2.9178,0,2.9119,2.9132,2.9118,2.9129,2.9131,2.9119,2.9127,2.9119,2.9127,2.9117,2.9116,2.9128,2.9122,2.9133,2.9128,2.9134,2.9114,2.912,2.9113,2.9115,2.9098,2.91,2.9037,2.903,2.9088,2.9088,2.9087,0,2.9089,2.9079,2.9088,2.9085,2.9088,2.9082,2.908,2.9096,2.9093,2.9096,2.9088,2.9083,2.908,2.9069,2.9077,2.9073,2.908,2.9058,2.9079,2.9076,2.9081,2.9082,2.9081,2.9054,2.9053,2.9053,2.9052,0,2.9035,2.9043,2.904,2.9039,2.9037,2.9036,2.9038,2.9034,2.905,2.9046,2.9041,2.9038,2.9034,2.9029,2.9027,2.903,2.9044,2.9045,2.9041,2.9038,2.9035,2.9037,2.9102,2.9047,2.9047,2.9048,2.9048,2.9048,2.8995,2.8987,2.8993,2.8989,2.8992,2.8992,2.8986,2.8994,2.899,2.8988,2.8997,2.899,2.8993,2.8993,2.8994,2.8988,2.8998,2.8991,2.899,2.8989,2.8986,2.9035,2.8987,2.8988,2.8988,2.8988,2.8988,0,2.8943,2.8948,2.8944,2.8946,2.8943,2.8957,2.8959,2.8956,2.8949,2.8952,2.8949,2.8943,2.8939,2.8947,2.8944,2.8938,2.8944,2.8936,2.8937,2.8938,2.8977,2.8982,2.8931,2.8931,2.8931,2.8931,2.8931,2.8931,2.8915,2.8903,2.8911,2.89,2.8905,2.8899,2.8899,2.89,2.8902,2.8895,2.8892,2.8898,2.8903,2.89,2.8897,2.8899,2.8898,2.8888,2.8893,2.8929,2.8935,2.894,2.8945,2.8887,2.8887,2.8854,2.8854,2.8853]}]]